Kuchera_Ratio
8.2 8.9 9.9 9.7 10.7 10.3 9.3 8.2 7.6 7.2 6.3 3.7 0.9 0.7 0.3 1.3 0.0 0.6 0.8 0.0 0.0 0.0
11.5 9.5 9.6 10.2 10.2 10.9 9.4 7.9 8.4 7.8 7.6 6.4 4.3 2.0 3.1 3.9 2.9 2.8 3.5 1.1 0.3 0.2
13.8 12.5 11.3 10.1 11.2 11.1 10.4 10.5 10.2 9.3 8.4 7.7 7.1 6.5 5.5 6.1 5.5 4.9 4.7 4.9 3.4 1.9
14.9 14.0 13.3 12.8 12.4 12.0 11.2 10.7 11.0 11.5 10.5 9.6 8.8 8.4 7.9 8.3 7.8 8.8 9.2 8.8 8.1 8.1
15.9 15.2 15.1 14.5 13.6 12.5 12.8 12.1 12.2 12.1 12.4 12.2 11.5 10.4 10.5 9.6 9.3 10.4 9.6 9.5 10.3 9.0
17.6 17.0 16.5 15.7 14.8 14.2 13.6 13.3 12.9 12.8 13.1 12.8 12.7 12.1 12.5 12.0 12.1 10.9 9.1 8.6 8.6 8.7
20.1 18.8 17.8 16.7 15.8 15.2 14.6 14.7 13.6 13.3 13.2 13.1 13.0 12.2 12.1 12.2 11.9 11.5 10.8 10.6 10.5 9.5
21.3 20.1 19.5 19.0 17.5 16.4 15.9 15.6 14.7 14.4 13.8 13.5 12.9 12.4 12.8 12.4 12.7 12.9 13.0 12.5 10.7 10.9
22.4 22.3 21.8 20.7 19.6 18.8 18.0 16.7 16.0 15.5 15.1 14.7 13.3 9.3 8.3 11.4 13.0 12.8 13.1 13.4 12.7 11.9
23.0 23.1 23.0 22.2 21.4 21.0 20.4 18.8 17.8 16.6 15.9 15.9 15.2 10.7 9.0 8.0 12.3 12.8 12.9 13.0 12.9 13.0
24.4 23.9 23.8 24.1 23.3 22.7 21.5 20.9 19.5 18.3 16.7 16.3 15.3 12.6 11.2 10.0 13.3 13.8 13.0 12.8 12.7 12.9
25.4 25.1 25.3 25.2 25.0 23.7 22.6 21.5 19.9 17.5 18.0 18.0 16.3 13.3 12.8 12.6 13.8 13.9 13.7 12.8 12.5 12.7
25.8 26.1 26.0 25.8 25.6 25.3 23.9 20.9 19.6 19.7 18.9 18.3 19.4 15.6 13.2 13.2 13.9 15.1 14.4 13.4 12.8 11.2
25.4 25.9 26.2 26.5 26.3 26.1 25.8 24.0 25.2 22.6 21.9 20.7 19.3 18.2 14.6 13.1 14.0 15.0 15.0 14.6 14.3 13.0